STARLINK-32473, 62049

Orbit data source: Space-Track

STARLINK-32473, 62049 is a payload satellite owned by SpaceX/Seattle (US) in LEO that was launched on Thu, 21 Nov 2024 UTC via an FALCON 9 launch vehicle from the Air Force Eastern Test Range (AFETR). Payloads include a variety of satellites, spacecraft, and rockets equipped with specific instruments for various scientific and technological missions. These include communications satellites like Starlink; space stations such as the ISS; scientific satellites like the Hubble; Earth observation satellites from companies like Planet Labs, Umbra, and HawkEye 360; GPS; miniature CubeSats for education and research; and military/defense satellites.

Loading next visibility...
STARLINK-32473 details
Identifier
62049, 2024-216T
Orbit
LEO
Last TLE update8 hours ago
Origin
Flag of USSpaceX/Seattle (US)
ManufacturerSpaceX/Seattle
MissionOperational spacecraft
Bus & MotorSTARLINK V2M, Unknown motor
Mass730 kg wet, ~700 kg dry
Launch date (UTC)
2024-11-21 (1 month ago)
Launch vehicle
FALCON 9
Launch site
Air Force Eastern Test Range (AFETR)
Object type
Payload
Rocket body
Debris
Shape & HBRUnknown
Radar Cross SectionLarge (>1 m²)

Expand to show TLE details & history

TLE from 8 hours ago
0 STARLINK-32473
1 62049U 24216T   24361.08789768  .00000884  00000-0  28439-4 0  9995
2 62049  43.0007 234.3892 0001266 277.4245  82.6468 15.40675204  5399
Epoch: 2024-12-26T02:06Z
Definitive object data (Epoch: 2024-12-26T02:06:34.359Z)
Latitude0.00001°
Longitude107.67372°
Altitude443.779 km
Speed7.648 km/s
True Right ascension15h 37m 33s
True Declination0° 00' 00"
Sunlit
Object was in daylight at TLE epoch
Visualization TLE readout
Latitude43.10526°
Longitude-160.75273°
Altitude448.1 km
Speed7.649 km/s
Apparent Right ascension21h 41m 11s
Apparent Declination3° 18' 25"
Sunlit
Object is in daylight
Visualization observer readout
Local Sidereal Time09:38:29
Azimuth359.015° N
Elevation-46.773°
Doppler factor1
Orbital elements
Apogee altitude446.935 km
Perigee altitude445.208 km
Semi-major axis6,824.208 km
Eccentricity0.0001266
Inclination43.0007°
RAAN234.3892°
Arg. of periapsis277.4245°
True anomaly82.66119°
Mean anomaly82.6468°
Eccentric anomaly82.65399°
Mean motion3.85004 °/min
BSTAR0.000028439
Orbital period93.51 mins
Loading maneuver chart data...
Loading historical data...
Loading historical data...
Loading historical data...
Loading historical data...
Loading historical data...
Loading historical data...
Loading historical data...

STARLINK-32473 Visibility forecast

Observer location: undefined°, undefined

Span
Click to sort rows by Start time (UTC) header in descending order
Start Az.
Max El. time (UTC)
Max El. Az.
Max El.
End time (UTC)
End Az.
6 mins2024-12-26 19:26:20.147Z230.575° WSW2024-12-26 19:29:20.147Z175.496° S37.103°2024-12-26 19:32:20.147Z81.157° E
5 mins2024-12-26 21:05:20.147Z276.547° WNW2024-12-26 21:07:20.147Z321.053° NNW38.189°2024-12-26 21:10:20.147Z67.347° ENE
5 mins2024-12-26 22:44:20.147Z299.557° NW2024-12-26 22:46:20.147Z31.917° NE39.22°2024-12-26 22:49:20.147Z88.653° E
5 mins2024-12-27 00:22:20.147Z270.333° WNW2024-12-27 00:24:20.147Z192.92° SSW36.683°2024-12-27 00:27:20.147Z131.361° SE
|